Weather History for KFWS - August, 2013

Change the Weather History Date:

Monday, August 26, 2013

  Actual Average (KDFW) Record (KDFW)
Temperature  
Mean Temperature 84 °F 84 °F  
Max Temperature 97 °F 95 °F 106 °F (1999)
Min Temperature 73 °F 74 °F 60 °F (1926)
Degree Days  
Heating Degree Days 0 0  
Month to date heating degree days 0  
Since 1 June heating degree days 0  
Since 1 July heating degree days 0  
Cooling Degree Days 20 19  
Month to date cooling degree days 539  
Year to date cooling degree days 2083  
Since 1 June cooling degree days 1661  
Growing Degree Days 34 (Base 50)    
Moisture  
Dew Point 65 °F    
Average Humidity 57    
Maximum Humidity 78    
Minimum Humidity 28    
Precipitation  
Precipitation 0.00 in 0.07 in 3.31 in (1947)
Month to date precipitation 1.50  
Year to date precipitation 23.70  
Sea Level Pressure  
Sea Level Pressure 30.13 in    
Wind  
Wind Speed 6 mph (SE)    
Max Wind Speed 18 mph    
Max Gust Speed 20 mph    
Visibility 10 miles    
Events      
T = Trace of Precipitation, MM = Missing Value Source: NWS Daily Summary

Daily Weather History Graph

Daily Weather History Graph

Search for Another Location

Airport or City:

Trip Planner

Search our weather history database for the weather conditions in past years. The results will help you decide how hot, cold, wet, or windy it might be!

Date:

Astronomy

Aug. 26, 2013 Rise Set
Actual Time 7:00 AM CDT 8:00 PM CDT
Civil Twilight 6:35 AM CDT 8:26 PM CDT
Nautical Twilight 6:05 AM CDT 8:56 PM CDT
Astronomical Twilight 5:34 AM CDT 9:26 PM CDT
Moon 11:36 PM CDT 12:40 PM CDT
Length of Visible Light 13h 51m
Length of Day
13h 00m
Waning Gibbous, 66% of the Moon is Illuminated
Aug 26
Waning Gibbous
Aug 28
Last Quarter
Sep 5
New
Sep 12
First Quarter
Sep 19
Full

Hourly Weather History & Observations

Time (CDT) Temp. Heat Index Dew Point Humidity Pressure Visibility Wind Dir Wind Speed Gust Speed Precip Events Conditions
12:15 AM 81.7 °F 82.9 °F 62.8 °F 53% 30.14 in 10.0 mi SE 3.5 mph - N/A   Clear
12:35 AM 81.9 °F 83.1 °F 63.0 °F 53% 30.14 in 10.0 mi SE 5.8 mph - N/A   Clear
12:55 AM 82.8 °F 84.0 °F 63.5 °F 52% 30.14 in 10.0 mi SE 6.9 mph - N/A   Clear
1:15 AM 82.8 °F 84.0 °F 63.7 °F 52% 30.14 in 10.0 mi SE 6.9 mph - N/A   Clear
1:35 AM 81.9 °F 83.2 °F 63.9 °F 54% 30.14 in 10.0 mi SE 5.8 mph - N/A   Clear
1:55 AM 81.0 °F 82.6 °F 64.4 °F 57% 30.14 in 10.0 mi SE 3.5 mph - N/A   Clear
2:15 AM 80.2 °F 82.0 °F 64.9 °F 59% 30.14 in 10.0 mi SSE 6.9 mph - N/A   Clear
2:35 AM 80.2 °F 82.2 °F 65.5 °F 61% 30.14 in 10.0 mi SSE 6.9 mph - N/A   Clear
2:55 AM 79.9 °F - 66.2 °F 63% 30.15 in 10.0 mi SSE 4.6 mph - N/A   Clear
3:15 AM 78.6 °F - 66.2 °F 66% 30.15 in 10.0 mi SSE 3.5 mph - N/A   Clear
3:35 AM 78.3 °F - 66.4 °F 67% 30.15 in 10.0 mi Calm Calm - N/A   Clear
3:55 AM 77.5 °F - 66.2 °F 68% 30.15 in 10.0 mi Calm Calm - N/A   Clear
4:15 AM 77.5 °F - 66.2 °F 68% 30.15 in 10.0 mi SE 5.8 mph - N/A   Clear
4:35 AM 77.4 °F - 66.2 °F 68% 30.15 in 10.0 mi SSE 3.5 mph - N/A   Clear
4:55 AM 76.6 °F - 66.2 °F 70% 30.15 in 10.0 mi Calm Calm - N/A   Clear
5:15 AM 76.5 °F - 66.7 °F 72% 30.15 in 10.0 mi SE 3.5 mph - N/A   Clear
5:35 AM 75.2 °F - 66.0 °F 73% 30.15 in 10.0 mi Calm Calm - N/A   Clear
5:55 AM 75.4 °F - 66.2 °F 73% 30.16 in 10.0 mi Calm Calm - N/A   Clear
6:15 AM 75.0 °F - 66.0 °F 73% 30.16 in 10.0 mi Calm Calm - N/A   Clear
6:50 AM 73.4 °F - 66.2 °F 78% 30.16 in 10.0 mi Calm Calm - N/A   Clear
7:52 AM 75.2 °F - 66.2 °F 73% 30.18 in 10.0 mi Calm Calm - N/A   Clear
8:49 AM 78.8 °F - 69.8 °F 74% 30.18 in 10.0 mi ESE 8.1 mph - N/A   Clear
9:54 AM 82.4 °F 85.4 °F 68.0 °F 62% 30.19 in 10.0 mi ESE 10.4 mph - N/A   Partly Cloudy
10:53 AM 86.0 °F 89.4 °F 68.0 °F 55% 30.19 in 10.0 mi SE 13.8 mph - N/A   Partly Cloudy
11:54 AM 89.6 °F 91.1 °F 64.4 °F 43% 30.18 in 10.0 mi East 11.5 mph - N/A   Partly Cloudy
12:46 PM 91.4 °F 93.2 °F 64.4 °F 41% 30.16 in 10.0 mi ESE 18.4 mph - N/A   Scattered Clouds
1:49 PM 91.4 °F 93.2 °F 64.4 °F 41% 30.13 in 10.0 mi East 11.5 mph - N/A   Mostly Cloudy
2:51 PM 93.2 °F 93.3 °F 60.8 °F 34% 30.10 in 10.0 mi SE 12.7 mph - N/A   Scattered Clouds
3:46 PM 96.8 °F 96.2 °F 59.0 °F 28% 30.09 in 10.0 mi ESE 15.0 mph - N/A   Mostly Cloudy
4:50 PM 96.8 °F 96.2 °F 59.0 °F 28% 30.07 in 10.0 mi SE 15.0 mph - N/A   Mostly Cloudy
5:47 PM 93.2 °F 91.9 °F 57.2 °F 30% 30.07 in 10.0 mi ESE 12.7 mph - N/A   Scattered Clouds
6:47 PM 93.2 °F 91.9 °F 57.2 °F 30% 30.07 in 10.0 mi ESE 10.4 mph 18.4 mph N/A   Partly Cloudy
7:55 PM 89.2 °F 88.2 °F 58.5 °F 35% 30.07 in 10.0 mi SE 5.8 mph - N/A   Clear
8:15 PM 87.4 °F 86.9 °F 59.5 °F 39% 30.07 in 10.0 mi SE 4.6 mph - N/A   Clear
8:35 PM 86.0 °F 85.7 °F 60.1 °F 41% 30.07 in 10.0 mi ESE 4.6 mph - N/A   Clear
8:55 PM 84.4 °F 86.6 °F 66.0 °F 54% 30.09 in 10.0 mi SSE 11.5 mph - N/A   Clear
9:15 PM 83.1 °F 85.4 °F 66.2 °F 57% 30.09 in 10.0 mi SSE 13.8 mph 19.6 mph N/A   Clear
9:35 PM 81.9 °F 83.9 °F 65.8 °F 58% 30.09 in 10.0 mi SSE 9.2 mph - N/A   Clear
9:55 PM 81.3 °F 83.5 °F 66.0 °F 60% 30.10 in 10.0 mi SSE 6.9 mph - N/A   Clear
10:15 PM 80.6 °F 82.7 °F 66.2 °F 61% 30.09 in 10.0 mi SSE 8.1 mph - N/A   Clear
10:35 PM 80.1 °F 82.1 °F 66.2 °F 62% 30.09 in 10.0 mi SSE 5.8 mph - N/A   Clear
10:55 PM 80.1 °F 82.2 °F 66.6 °F 63% 30.10 in 10.0 mi SSE 6.9 mph - N/A   Clear
11:15 PM 79.9 °F - 66.7 °F 64% 30.10 in 10.0 mi SE 6.9 mph - N/A   Clear
11:35 PM 78.3 °F - 66.2 °F 66% 30.10 in 10.0 mi SE 4.6 mph - N/A   Clear
11:55 PM 78.3 °F - 66.6 °F 67% 30.10 in 10.0 mi SSE 5.8 mph - N/A   Clear